{"data":{"norad_id":52989,"intl_designator":"2022-076D","name":"STARLINK-4293","alt_names":[],"object_type":"PAYLOAD","status":"ACTIVE","operator":null,"country":"US","launch_date":"2022-07-07","launch_site_code":"AFETR","launch_vehicle":null,"mission":null,"orbit_class":"UNKNOWN","rcs_meters":null,"size_class":null,"mass_kg":null,"dimensions":null,"purposes":["comms"],"wikipedia_slug":null,"has_3d_model":false,"image_url":null,"decayed_at":null,"tle_current":{"epoch":"2026-05-25T06:00:02.000160Z","epoch_age_seconds":64011,"freshness":"FRESH","line1":"1 52989U 22076D   26145.25002315  .00098168  00000+0  29318-2 0  9992","line2":"2 52989  53.2183 115.4542 0001673  90.2303 295.8569 15.33825060  5825","mean_motion":15.3382506,"eccentricity":0.0001673,"inclination_deg":53.2183,"raan_deg":115.4542,"arg_perigee_deg":90.2303,"mean_anomaly_deg":295.8569,"bstar":0.0029318,"rev_number":582,"period_min":93.882936037047,"perigee_km":463.26785826358,"apogee_km":465.55737536536,"semimajor_km":6842.5496168145,"source":"CELESTRAK","updated_at":"2026-05-25T13:38:17.273865Z"}}}